IK7IZV Weather Reports


Display with metric or nautical units.
time (UTC)temp
F
wind
direction
speed
MPH
gust
MPH
rain 1hr
in
rain 24hr
in
rain mn
in
humidity
%
barometer
mb
20260508110045 59 148 17.0 24.0 0.09 0.27 0.27 91 1014.2
20260508104544 59 138 12.0 24.0 0.09 0.25 0.25 91 1014.4
20260508103048 58 133 10.0 24.0 0.09 0.24 0.24 91 1014.5
20260508101544 59 137 11.0 27.0 0.10 0.21 0.21 92 1014.3
20260508100037 59 163 18.0 26.0 0.09 0.18 0.18 92 1014.2
20260508094535 59 156 13.0 22.0 0.06 0.16 0.16 91 1014.2
20260508093036 60 139 11.0 23.0 0.07 0.15 0.15 91 1014.1
20260508091530 61 97 6.0 11.0 0.04 0.11 0.11 90 1014.1
20260508090033 61 147 4.0 11.0 0.03 0.09 0.09 90 1014.2
20260508084525 60 108 5.0 10.0 0.05 0.09 0.09 90 1014.2
20260508083024 60 201 3.0 9.0 0.04 0.08 0.08 90 1014.1
20260508081525 60 148 5.0 7.0 0.05 0.07 0.07 90 1014.1
20260508080031 60 143 3.0 10.0 0.04 0.06 0.06 88 1014.0
20260508074518 61 125 3.0 9.0 0.04 0.05 0.05 88 1014.0
20260508073020 61 136 5.0 11.0 0.03 0.03 0.03 87 1014.1
20260508071515 61 120 5.0 12.0 0.02 0.02 0.02 86 1014.0
20260508070020 62 148 4.0 12.0 0.02 0.02 0.02 83 1013.9
20260508064528 62 165 5.0 11.0 0.01 0.01 0.01 81 1013.9
20260508063010 62 177 3.0 8.0 0.00 0.00 0.00 80 1013.8
20260508061517 63 187 6.0 10.0 0.00 0.00 0.00 78 1013.8
20260508060009 63 231 6.0 11.0 0.00 0.00 0.00 76 1013.7
20260508054508 63 175 5.0 10.0 0.00 0.03 0.00 76 1013.5
20260508053007 63 216 3.0 8.0 0.00 0.03 0.00 76 1013.5
20260508051506 62 162 2.0 5.0 0.00 0.03 0.00 77 1013.5
20260508050009 62 178 3.0 6.0 0.00 0.08 0.00 78 1013.3
20260508044506 62 175 0.0 4.0 0.00 0.08 0.00 79 1013.3
20260508043005 62 198 3.0 6.0 0.00 0.08 0.00 79 1013.2
20260508041504 62 201 2.0 5.0 0.00 0.08 0.00 80 1013.2
20260508040007 62 197 2.0 6.0 0.00 0.13 0.00 81 1013.2
20260508034502 62 189 2.0 7.0 0.00 0.13 0.00 81 1013.2
20260508033102 62 179 1.0 5.0 0.00 0.13 0.00 81 1013.3
20260508031559 62 193 4.0 6.0 0.00 0.13 0.00 80 1013.2
20260508030058 62 212 4.0 8.0 0.00 0.13 0.00 79 1013.3
20260508024555 62 215 4.0 8.0 0.00 0.17 0.00 77 1013.4
20260508023053 62 186 3.0 9.0 0.00 0.17 0.00 74 1013.5
20260508021551 62 151 4.0 12.0 0.00 0.17 0.00 72 1013.6
20260508020054 62 182 6.0 12.0 0.00 0.17 0.00 71 1013.9
20260508014547 62 208 5.0 9.0 0.00 0.21 0.00 70 1013.9
20260508013044 62 170 6.0 11.0 0.00 0.21 0.00 68 1013.9
20260508011543 62 162 4.0 9.0 0.00 0.21 0.00 65 1013.9
20260508010039 62 151 4.0 9.0 0.00 0.21 0.00 62 1014.0
20260508004541 62 166 3.0 7.0 0.00 0.24 0.00 59 1014.0
20260508003043 62 221 3.0 6.0 0.00 0.24 0.00 58 1014.2
20260508001535 62 198 4.0 8.0 0.00 0.24 0.00 58 1014.1
20260508000033 62 193 2.0 8.0 0.00 0.24 0.00 59 1014.3
20260507234543 62 198 4.0 8.0 0.00 0.25 0.00 59 1014.5
20260507233029 62 170 3.0 8.0 0.00 0.25 0.00 59 1014.8
20260507231526 63 200 4.0 9.0 0.00 0.25 0.00 58 1015.0
20260507230022 63 180 5.0 11.0 0.00 0.25 0.00 57 1015.3
20260507224520 63 160 6.0 11.0 0.00 0.25 0.00 56 1015.3
20260507223018 64 197 4.0 8.0 0.00 0.25 0.00 55 1015.3
20260507221515 64 183 3.0 9.0 0.00 0.25 0.00 52 1015.3
20260507220013 64 165 3.0 8.0 0.00 0.25 0.00 50 1015.5
20260507214510 64 198 4.0 10.0 0.00 0.25 0.25 48 1015.6
20260507213016 64 198 6.0 11.0 0.00 0.25 0.25 49 1015.5
20260507211508 64 162 5.0 11.0 0.00 0.25 0.25 49 1015.4
20260507210007 64 185 7.0 10.0 0.00 0.25 0.25 49 1015.4
20260507204506 65 184 6.0 11.0 0.00 0.25 0.25 48 1015.6
20260507203005 66 179 7.0 12.0 0.00 0.25 0.25 46 1015.8
20260507201506 66 222 7.0 14.0 0.00 0.25 0.25 44 1016.0
20260507200004 66 210 4.0 9.0 0.00 0.25 0.25 44 1016.2
20260507194507 66 203 5.0 12.0 0.00 0.25 0.25 46 1016.3
20260507193002 66 180 4.0 9.0 0.00 0.25 0.25 46 1016.2
20260507191502 67 168 4.0 8.0 0.00 0.25 0.25 45 1016.0
20260507190113 67 227 2.0 6.0 0.00 0.25 0.25 43 1015.8
20260507184559 67 197 3.0 6.0 0.00 0.25 0.25 42 1015.6
20260507183116 67 198 6.0 11.0 0.00 0.25 0.25 40 1015.7
20260507181601 68 274 4.0 11.0 0.00 0.25 0.25 39 1015.4
20260507180059 68 246 6.0 15.0 0.00 0.25 0.25 38 1015.4
20260507174604 68 215 7.0 16.0 0.00 0.25 0.25 37 1015.4
20260507173108 69 222 8.0 12.0 0.00 0.25 0.25 37 1015.3
20260507171555 69 210 8.0 14.0 0.00 0.25 0.25 36 1015.3
20260507170057 70 215 8.0 12.0 0.00 0.25 0.25 35 1015.2
20260507164627 70 210 7.0 13.0 0.00 0.25 0.25 36 1015.3
20260507163056 71 202 4.0 14.0 0.00 0.25 0.25 36 1015.3
20260507161558 71 224 6.0 15.0 0.00 0.25 0.25 36 1015.4
20260507160052 71 209 8.0 15.0 0.00 0.25 0.25 36 1015.3
20260507154556 72 222 7.0 14.0 0.00 0.25 0.25 34 1015.4
20260507153051 72 216 9.0 16.0 0.00 0.25 0.25 36 1015.1
20260507151550 73 208 8.0 16.0 0.00 0.25 0.25 35 1015.2
20260507150049 73 291 6.0 14.0 0.00 0.25 0.25 35 1015.1
20260507144546 73 229 7.0 15.0 0.00 0.25 0.25 37 1015.3
20260507143047 72 31 6.0 11.0 0.00 0.25 0.25 42 1015.4
20260507141544 72 253 8.0 17.0 0.00 0.25 0.25 44 1015.5
20260507140045 73 224 6.0 15.0 0.00 0.25 0.25 41 1015.5
20260507134544 74 257 11.0 22.0 0.00 0.25 0.25 43 1015.5
20260507133047 73 227 9.0 18.0 0.00 0.25 0.25 44 1015.5
20260507131541 73 261 8.0 16.0 0.00 0.25 0.25 47 1015.7
20260507130042 72 223 9.0 17.0 0.00 0.25 0.25 50 1015.9
20260507124540 73 192 6.0 14.0 0.00 0.25 0.25 49 1016.0
20260507123037 73 264 10.0 17.0 0.00 0.25 0.25 49 1016.1
20260507121535 73 272 8.0 19.0 0.00 0.25 0.25 51 1015.8
20260507120033 73 229 7.0 20.0 0.00 0.25 0.25 55 1015.9
20260507114553 72 247 7.0 20.0 0.00 0.25 0.25 57 1015.7
20260507113057 72 251 11.0 21.0 0.00 0.25 0.25 58 1016.0
20260507111536 72 5 6.0 21.0 0.00 0.25 0.25 62 1016.0